Weather History for Whiting Fld NAS, FL

Change the Weather History Date:

Tuesday, October 4, 2011

  Actual Average Record
Temperature  
Mean Temperature 68 °F -  
Max Temperature 84 °F 80 °F 91 °F (2004)
Min Temperature 51 °F 62 °F 46 °F (2010)
Cooling Degree Days 2    
Growing Degree Days 18 (Base 50)    
Moisture  
Dew Point 48 °F    
Average Humidity 57    
Maximum Humidity 82    
Minimum Humidity 27    
Precipitation  
Precipitation 0.00 in - - ()
Sea Level Pressure  
Sea Level Pressure 30.15 in    
Wind  
Wind Speed 5 mph (NNE)    
Max Wind Speed 8 mph    
Max Gust Speed -    
Visibility 10 miles    
Events      
Averages and records for this station are not official NWS values.
T = Trace of Precipitation, MM = Missing Value Source: NWS Daily Summary

Daily Weather History Graph

Daily Weather History Graph

Search for Another Location

Airport:

Trip Planner

Search our weather history database for the weather conditions in past years. The results will help you decide how hot, cold, wet, or windy it might be!

Date:

Astronomy

Oct. 04, 2011 Rise Set
Actual Time 6:43 AM CDT 6:29 PM CDT
Civil Twilight 6:19 AM CDT 6:53 PM CDT
Nautical Twilight 5:51 AM CDT 7:21 PM CDT
Astronomical Twilight 5:23 AM CDT 7:49 PM CDT
Moon 2:06 PM CDT (10/4) No Moon Set
Length of Visible Light 12h 34m
Length of Day
11h 46m
First Quarter, 56% of the Moon is Illuminated
Oct 4
First Quarter
Oct 11
Full
Oct 19
Last Quarter
Oct 26
New
Nov 2
First Quarter

Hourly Weather History & Observations

Time (CDT) Temp. Dew Point Humidity Pressure Visibility Wind Dir Wind Speed Gust Speed Precip Events Conditions
12:56 AM 57.0 °F 46.9 °F 69% 30.14 in 10.0 mi North 4.6 mph - N/A   Clear
1:56 AM 54.0 °F 48.0 °F 80% 30.13 in 10.0 mi North 4.6 mph - N/A   Clear
2:56 AM 57.0 °F 45.0 °F 64% 30.14 in 10.0 mi North 5.8 mph - N/A   Clear
3:56 AM 57.0 °F 45.0 °F 64% 30.13 in 10.0 mi North 4.6 mph - N/A   Clear
4:56 AM 53.1 °F 46.0 °F 77% 30.14 in 10.0 mi North 4.6 mph - N/A   Clear
5:56 AM 53.1 °F 46.0 °F 77% 30.16 in 10.0 mi North 3.5 mph - N/A   Clear
6:06 AM 51.8 °F 46.4 °F 82% 30.20 in 10.0 mi North 4.6 mph - N/A   Clear
6:56 AM 52.0 °F 46.0 °F 80% 30.18 in 10.0 mi North 3.5 mph - N/A   Clear
7:56 AM 59.0 °F 46.9 °F 64% 30.19 in 10.0 mi NNE 4.6 mph - N/A   Clear
8:56 AM 64.9 °F 48.9 °F 56% 30.21 in 10.0 mi Variable 3.5 mph - N/A   Clear
9:56 AM 71.1 °F 48.0 °F 44% 30.22 in 10.0 mi East 5.8 mph - N/A   Clear
10:56 AM 75.0 °F 48.9 °F 40% 30.21 in 10.0 mi ESE 4.6 mph - N/A   Clear
11:56 AM 78.1 °F 45.0 °F 31% 30.19 in 10.0 mi ENE 3.5 mph - N/A   Partly Cloudy
12:56 PM 81.0 °F 45.0 °F 28% 30.16 in 10.0 mi Variable 3.5 mph - N/A   Partly Cloudy
1:56 PM 82.9 °F 46.9 °F 28% 30.14 in 10.0 mi Variable 3.5 mph - N/A   Partly Cloudy
2:56 PM 84.0 °F 46.9 °F 27% 30.11 in 10.0 mi North 6.9 mph - N/A   Partly Cloudy
3:56 PM 84.0 °F 48.0 °F 28% 30.09 in 10.0 mi North 4.6 mph - N/A   Scattered Clouds
4:56 PM 82.0 °F 46.0 °F 28% 30.10 in 10.0 mi NE 5.8 mph - N/A   Scattered Clouds
5:56 PM 78.1 °F 50.0 °F 37% 30.09 in 10.0 mi NNE 8.1 mph - N/A   Scattered Clouds
6:56 PM 70.0 °F 52.0 °F 53% 30.11 in 10.0 mi NNE 5.8 mph - N/A   Clear
7:56 PM 62.1 °F 54.0 °F 75% 30.12 in 10.0 mi Calm Calm - N/A   Clear
8:56 PM 62.1 °F 55.0 °F 78% 30.13 in 10.0 mi North 3.5 mph - N/A   Clear
9:56 PM 62.1 °F 53.1 °F 72% 30.13 in 10.0 mi North 3.5 mph - N/A   Clear
10:56 PM 60.1 °F 53.1 °F 78% 30.13 in 10.0 mi North 4.6 mph - N/A   Clear
11:56 PM 60.1 °F 52.0 °F 75% 30.12 in 10.0 mi North 3.5 mph - N/A   Clear